Theta_e
303 298 293 296 296 293 294 291 289 291 296 293 292 293 299 301 299 299 299 299 300 303 309 310 311 313 315 319 320 318 319 321 320 318 317 318 319 322 321 322 324 324 324 323
299 294 297 299 299 296 292 289 288 292 296 294 293 292 297 298 299 300 301 301 300 301 305 308 307 308 311 314 320 321 319 320 320 320 320 320 319 320 322 322 322 323 323 322
293 294 300 298 296 295 293 290 289 290 293 293 293 290 293 298 300 301 302 303 304 302 303 305 305 304 305 308 313 320 323 321 321 322 319 318 318 317 317 318 320 322 322 322
295 298 297 296 294 296 290 295 294 292 290 284 290 281 288 293 295 297 300 301 303 305 305 304 304 304 304 306 307 314 320 322 322 321 320 319 319 317 319 320 320 321 321 322
292 294 294 293 295 297 292 296 294 292 288 285 285 284 285 290 291 295 298 298 300 303 304 305 304 306 307 308 309 311 315 319 322 321 322 320 319 320 320 319 318 319 321 322
294 299 297 296 299 299 296 293 292 290 288 283 286 286 282 288 292 294 295 296 298 299 301 303 305 305 305 302 302 303 306 306 314 320 321 320 319 321 321 319 318 319 320 321
289 292 294 297 293 296 296 291 281 281 280 278 285 285 287 289 292 293 294 296 297 299 300 300 300 302 299 299 300 302 302 302 303 304 305 308 312 316 319 321 322 320 320 319
286 283 292 295 293 291 293 291 280 274 277 278 283 281 285 292 295 295 296 295 298 296 297 298 297 298 298 299 299 299 300 300 301 301 301 302 302 304 307 312 318 321 323 324
286 286 291 295 295 296 291 289 291 281 273 276 279 283 289 291 292 293 294 295 295 296 296 296 297 297 297 298 298 299 299 300 300 301 301 301 302 302 302 303 306 310 313 317
289 284 290 293 296 295 294 295 285 283 273 271 278 278 281 285 289 291 291 293 294 294 295 296 296 296 297 297 297 298 299 300 300 301 301 301 301 301 302 302 303 303 305 307
290 287 285 290 290 289 291 290 289 289 281 276 273 278 286 290 290 292 291 292 294 294 294 294 293 295 295 295 296 297 298 299 299 300 300 299 299 300 301 301 301 302 304 305
293 288 284 287 287 289 295 291 290 284 280 282 280 281 288 290 290 290 291 293 293 295 295 290 292 293 293 294 295 295 297 297 298 298 297 297 298 298 298 299 300 301 301 302
294 287 281 284 287 289 289 290 293 291 285 282 280 283 294 290 289 290 291 293 294 294 291 290 290 291 292 293 294 295 295 296 298 297 295 295 295 296 296 297 298 298 298 299
297 288 286 281 285 289 287 290 291 290 285 284 284 286 288 288 288 289 290 294 293 293 290 290 290 291 291 293 293 294 294 295 296 295 293 292 293 294 295 296 296 296 296 296
294 286 287 288 283 288 288 289 290 288 289 285 287 286 290 293 292 290 288 291 292 292 290 291 290 290 290 291 291 293 293 294 295 293 292 291 293 294 294 294 294 293 293 293
292 285 288 284 285 284 285 287 289 290 290 289 289 288 295 297 295 291 291 291 291 292 294 293 292 290 290 290 291 293 293 293 294 292 291 291 291 291 291 292 291 290 290 290
289 288 285 282 284 281 280 285 287 289 291 290 286 291 296 295 291 292 290 290 292 294 295 295 292 291 291 290 292 293 292 292 293 290 290 289 289 288 288 289 288 288 288 288
289 288 287 283 282 275 286 290 290 289 291 292 292 294 295 296 297 292 292 293 293 294 295 293 292 290 290 290 292 292 292 291 290 289 288 287 286 285 285 285 285 286 287 287
293 289 284 280 280 279 281 283 285 285 286 292 291 294 296 295 291 292 296 296 294 294 294 293 292 291 290 290 292 291 289 288 287 287 286 285 285 284 284 284 284 285 284 285
290 291 286 279 278 275 283 288 288 288 282 292 292 292 293 294 289 293 296 293 293 294 294 293 291 288 288 289 290 288 287 287 287 287 286 285 285 284 284 285 285 283 283 285
285 285 283 283 279 276 283 282 289 279 283 288 292 293 293 291 294 294 291 289 289 289 288 287 287 287 287 286 287 286 286 286 287 286 285 285 284 284 285 285 284 284 284 284
283 282 281 283 279 275 283 284 283 287 284 284 286 286 286 286 286 286 286 285 285 284 284 284 283 283 283 284 284 284 283 285 284 284 284 284 283 284 285 283 285 284 282 282
281 282 280 281 280 285 284 284 285 287 286 284 284 284 285 284 282 282 281 281 281 281 281 281 281 281 282 283 283 282 283 283 284 283 283 283 284 284 284 282 284 284 282 282
282 284 282 282 284 283 283 282 281 281 281 280 280 279 280 278 278 278 278 278 279 279 279 279 278 278 278 279 280 279 280 281 279 279 280 282 282 283 284 285 284 284 284 283
283 284 281 281 281 279 276 278 279 277 278 277 277 277 276 277 276 276 277 277 276 277 276 275 275 275 275 276 275 275 276 275 274 275 276 277 278 279 281 283 284 284 285 285
276 280 283 283 278 279 274 276 277 275 274 274 275 274 275 274 273 272 272 273 273 272 272 272 272 271 271 271 270 271 271 272 271 271 272 274 275 276 277 278 279 285 286 287
Wind_Speed
4 7 15 15 8 5 6 5 6 3 6 3 8 11 17 9 6 9 9 8 9 10 9 8 8 9 7 5 8 12 13 15 10 8 6 7 9 7 6 6 9 10 10 10
5 18 7 6 5 5 4 5 4 5 4 5 6 8 11 7 7 9 10 10 10 7 9 11 9 6 7 8 12 12 15 13 13 10 8 6 7 7 7 5 6 9 9 9
13 3 11 12 7 12 10 7 4 4 3 3 4 10 8 10 6 8 8 11 13 14 12 12 9 7 5 7 9 10 12 13 14 12 4 3 2 0 2 4 5 8 10 10
12 8 17 12 16 10 14 7 7 4 2 5 1 9 6 6 10 7 9 13 16 18 15 10 7 5 6 7 6 8 8 9 9 8 8 9 9 9 8 7 6 7 9 12
10 13 11 16 15 16 7 8 8 4 2 2 2 5 7 2 6 12 14 12 13 15 15 12 6 6 4 4 4 1 6 7 7 8 10 8 7 6 5 3 6 8 8 12
8 6 16 9 13 16 7 6 4 4 3 10 10 8 5 7 11 7 6 9 10 7 6 8 6 7 6 5 6 6 8 7 4 4 6 6 6 7 5 5 6 7 6 8
4 5 2 7 8 5 13 11 2 3 5 9 3 10 16 5 6 8 9 7 6 8 9 8 8 7 7 7 6 6 7 6 6 7 6 4 3 5 7 8 7 7 6 6
13 13 11 7 8 10 19 14 7 9 7 4 5 11 8 10 9 8 11 8 5 6 6 8 7 7 7 7 6 6 6 5 5 4 3 2 1 2 3 4 4 4 5 7
15 14 2 5 5 15 8 12 8 6 3 3 6 7 10 8 6 8 5 6 7 9 7 9 7 6 6 6 5 5 5 4 5 5 5 6 5 5 4 6 5 4 5 5
5 6 5 7 3 6 13 10 6 2 5 5 4 6 9 3 9 7 6 7 7 4 7 7 6 6 5 5 4 5 5 5 4 5 5 4 5 5 5 5 6 6 7 6
5 5 3 7 12 12 8 12 4 6 6 6 2 9 9 15 12 14 10 9 9 8 8 7 7 6 7 5 5 5 5 6 5 5 4 6 6 6 5 5 5 6 7 8
10 4 5 14 0 3 16 11 14 11 12 8 1 12 3 9 8 8 8 9 9 9 9 7 8 8 7 7 6 6 5 5 4 4 5 5 5 5 5 5 5 6 7 8
14 7 6 4 1 2 11 9 17 14 2 15 8 13 10 8 4 5 8 8 7 7 8 8 7 8 8 7 7 7 6 6 5 4 4 4 4 5 5 5 5 5 6 8
21 7 19 14 18 9 13 22 21 21 13 18 16 22 9 7 9 9 9 10 9 10 10 9 8 8 8 8 8 7 7 6 6 4 2 3 4 4 5 5 6 6 6 8
12 15 10 16 1 16 19 22 24 21 27 18 25 21 22 20 14 11 6 5 7 9 10 13 11 10 9 8 7 7 7 7 6 4 1 3 4 5 6 6 6 6 6 7
8 8 16 20 8 4 13 15 18 21 24 22 22 21 23 26 11 8 10 9 10 14 18 16 14 10 12 10 10 8 8 8 6 5 4 4 4 5 6 6 7 6 7 7
18 13 8 18 11 6 10 16 22 22 26 25 27 33 30 28 11 14 10 9 16 20 20 20 14 15 12 11 11 11 9 7 7 5 4 5 5 6 7 7 7 8 9 7
17 18 11 13 10 21 12 17 21 24 22 24 21 22 31 27 19 7 11 19 21 18 16 14 9 7 10 8 8 7 7 7 7 6 5 6 6 7 7 7 8 9 9 10
17 16 9 7 11 4 2 5 16 17 27 30 25 31 29 13 3 8 22 17 12 14 12 9 8 8 9 10 8 7 7 6 6 7 7 7 7 7 7 8 8 9 8 10
14 17 15 3 14 11 10 17 8 7 13 25 19 23 20 21 13 24 9 9 10 10 8 8 6 3 7 7 8 8 7 5 7 7 8 7 7 8 9 10 10 6 7 12
15 11 20 19 7 7 9 2 8 12 14 8 22 29 27 16 19 10 5 2 4 7 9 8 8 7 8 7 5 1 1 6 7 6 7 7 7 10 10 11 8 10 10 11
10 8 7 9 6 13 6 5 15 5 4 3 2 3 5 2 8 7 10 9 11 10 11 10 9 7 7 7 5 4 4 6 7 7 7 9 9 8 9 10 11 9 9 12
8 9 8 10 7 1 5 5 8 4 5 5 6 8 8 8 8 8 8 9 8 7 7 7 7 6 5 5 4 5 6 7 9 9 10 10 10 10 10 10 13 11 8 10
4 2 4 4 4 4 9 8 9 12 12 10 12 10 11 9 7 6 6 7 7 7 8 8 8 8 8 2 2 3 6 8 10 12 13 12 13 13 12 10 9 11 10 11
3 9 6 2 6 8 11 9 9 12 11 11 11 11 10 7 7 7 7 8 8 8 9 10 8 8 10 11 12 12 13 13 14 15 14 13 11 13 13 12 12 13 13 13
2 2 6 6 2 4 7 7 11 12 10 10 10 10 10 10 9 10 8 9 9 10 10 9 10 10 10 11 12 12 12 13 14 15 13 11 12 12 12 13 15 21 27 28
Wind_Direction
199 191 202 193 185 165 159 185 201 232 249 204 229 235 258 233 234 253 258 258 261 261 255 250 248 221 209 199 189 192 192 204 189 192 192 215 219 221 219 218 216 213 217 210
179 222 201 160 190 197 184 181 225 289 286 165 272 252 248 216 217 213 232 260 252 254 261 251 233 243 206 209 205 198 202 195 197 198 207 207 199 223 224 208 210 219 217 215
200 175 175 182 185 204 224 200 183 208 327 312 335 280 237 265 214 217 229 238 251 240 241 251 248 226 226 224 212 208 214 203 201 201 150 108 73 328 184 211 220 217 212 214
225 228 184 186 205 182 216 165 187 203 160 240 24 278 273 251 263 236 238 237 242 243 240 245 237 219 223 247 233 217 208 199 203 184 180 191 205 218 224 221 220 221 205 220
195 175 180 205 197 188 214 168 182 160 152 33 240 295 274 300 279 266 250 248 243 238 234 234 201 189 135 83 57 135 184 185 185 180 197 200 211 222 240 213 218 224 216 217
198 200 188 194 184 189 143 91 76 87 122 254 214 196 227 181 211 245 248 260 246 250 181 168 132 109 98 90 73 61 73 55 76 159 186 187 208 233 242 239 233 239 232 228
190 213 206 146 159 151 182 149 165 195 206 235 228 189 255 270 258 230 262 251 209 178 163 142 131 128 120 95 78 72 75 73 72 84 91 114 206 236 239 250 252 249 244 236
181 211 187 177 184 183 195 177 158 183 209 224 129 229 254 235 256 236 237 238 165 128 120 128 135 136 132 116 105 90 78 69 46 56 61 72 285 254 260 263 273 269 261 260
193 218 116 177 175 157 176 207 171 104 2 68 215 292 302 249 263 226 237 145 181 155 155 150 146 137 131 111 100 101 92 74 56 47 39 30 20 360 312 301 290 279 279 285
212 192 192 189 151 189 180 155 173 193 165 241 251 256 230 235 238 248 204 187 195 179 156 156 152 138 129 131 130 103 90 82 64 53 46 33 10 2 348 339 332 318 303 293
173 128 230 142 203 171 159 195 176 170 160 184 237 252 204 211 209 225 208 203 201 196 180 170 162 159 154 131 126 114 103 101 80 66 47 29 12 3 2 357 338 333 324 318
194 117 168 199 153 285 204 192 192 204 212 237 130 250 164 220 191 200 214 213 200 186 181 177 174 171 174 168 157 145 127 107 98 77 49 29 10 1 2 351 334 331 326 322
174 189 161 173 298 300 207 205 204 221 71 213 209 262 199 136 192 227 196 218 196 173 180 188 188 196 186 175 168 159 155 145 132 86 47 14 360 350 336 324 321 321 317 316
175 174 210 203 202 154 203 200 201 204 223 231 224 252 244 217 229 246 222 215 191 188 188 194 206 204 195 191 182 174 168 165 157 125 75 346 323 309 301 302 304 304 305 305
193 214 204 238 13 187 207 208 209 206 226 218 237 231 251 241 229 226 221 221 194 202 207 207 209 205 201 197 193 185 185 174 165 160 206 288 297 298 296 294 291 291 293 296
208 226 209 223 225 214 230 217 212 218 232 240 254 253 252 257 226 210 206 196 204 212 217 217 216 199 205 194 196 186 190 181 165 187 239 274 295 300 293 290 291 295 290 284
198 209 192 229 197 167 232 204 205 216 227 223 229 235 245 257 221 216 208 186 209 218 222 222 212 204 204 198 195 191 188 168 172 197 249 275 291 291 282 283 286 285 284 282
198 201 210 231 176 227 237 203 214 222 229 232 243 243 241 247 251 189 202 212 221 224 223 224 212 198 206 199 198 178 169 165 177 217 248 269 271 271 278 280 274 278 277 281
203 193 218 215 223 312 282 205 189 194 230 230 228 238 245 248 66 266 230 227 215 215 228 228 219 207 197 181 181 160 168 176 190 232 242 258 260 269 272 268 265 264 274 282
214 211 207 124 229 231 209 233 150 96 256 238 222 239 238 231 230 243 208 181 204 215 222 229 198 194 170 147 145 157 194 194 224 238 250 260 260 256 261 264 268 260 255 279
194 193 208 211 221 277 236 154 139 170 239 180 197 217 227 227 226 265 134 129 26 39 39 30 47 58 58 61 81 141 287 250 259 282 269 266 253 256 259 269 262 264 267 275
186 199 202 207 204 251 141 107 170 209 10 31 113 202 160 160 53 51 64 64 54 49 42 37 50 39 25 39 46 347 292 278 280 273 274 267 261 261 272 262 274 266 260 270
199 190 193 185 203 88 139 338 31 332 105 31 64 19 68 82 62 59 57 42 43 44 43 37 34 17 16 28 34 330 303 307 306 293 289 286 280 276 267 262 273 276 258 263
225 224 176 122 213 115 91 64 49 50 75 61 58 55 60 74 50 52 49 38 32 22 25 24 17 359 335 12 335 262 314 325 322 309 299 294 289 287 279 269 259 263 264 267
204 147 160 139 90 94 67 72 81 68 68 73 68 57 51 65 48 28 20 21 11 10 10 4 353 344 330 336 337 340 335 329 312 302 298 294 287 285 285 272 267 261 255 253
328 183 176 201 57 64 89 77 79 76 58 53 67 59 50 47 42 14 7 1 359 351 349 342 334 330 321 319 313 313 311 306 302 299 298 294 293 288 283 283 281 263 268 266